GW1125 Weather Reports


Display with metric or nautical units.
time (UTC)temp
F
wind
direction
speed
MPH
gust
MPH
rain 1hr
in
rain 24hr
in
rain mn
in
humidity
%
barometer
mb
20260507195638 60 0.0 0.0 0.00 0.00 0.00 69 1018.6
20260507195117 61 59 2.0 4.0 0.00 0.00 0.00 64 1018.6
20260507194638 59 117 0.0 1.0 0.00 0.00 0.00 69 1018.7
20260507194117 59 107 1.0 1.0 0.00 0.00 0.00 68 1018.8
20260507193617 59 87 1.0 1.0 0.00 0.00 0.00 69 1018.6
20260507193117 58 103 0.0 1.0 0.00 0.00 0.00 71 1018.8
20260507192617 58 82 0.0 2.0 0.00 0.00 0.00 71 1018.9
20260507192117 57 147 1.0 3.0 0.00 0.00 0.00 71 1018.8
20260507191616 57 77 1.0 2.0 0.00 0.00 0.00 72 1018.9
20260507191117 57 114 1.0 2.0 0.00 0.00 0.00 72 1018.9
20260507190618 57 85 0.0 2.0 0.00 0.00 0.00 72 1019.1
20260507190117 56 70 1.0 2.0 0.00 0.00 0.00 74 1019.0
20260507185617 56 98 0.0 1.0 0.00 0.00 0.00 74 1019.0
20260507185117 57 152 1.0 3.0 0.00 0.00 0.00 73 1019.0
20260507184617 58 43 1.0 2.0 0.00 0.00 0.00 70 1019.1
20260507184137 57 0.0 0.0 0.00 0.00 0.00 73 1019.1
20260507183637 57 0.0 0.0 0.00 0.00 0.00 70 1019.0
20260507183137 56 105 0.0 1.0 0.00 0.00 0.00 73 1019.1
20260507182617 56 42 1.0 4.0 0.00 0.00 0.00 73 1019.4
20260507182117 56 68 2.0 2.0 0.00 0.00 0.00 73 1019.2
20260507181618 58 351 0.0 2.0 0.00 0.00 0.00 71 1019.2
20260507181117 58 112 1.0 2.0 0.00 0.00 0.00 71 1019.2
20260507180617 56 116 0.0 2.0 0.00 0.00 0.00 74 1019.2
20260507180117 56 88 0.0 1.0 0.00 0.00 0.00 77 1019.1
20260507175617 55 84 0.0 2.0 0.00 0.00 0.00 77 1019.4
20260507175117 55 54 0.0 1.0 0.00 0.00 0.00 78 1019.4
20260507174617 55 0.0 0.0 0.00 0.00 0.00 78 1019.5
20260507174118 55 56 1.0 3.0 0.00 0.00 0.00 77 1019.4
20260507173637 55 110 0.0 1.0 0.00 0.00 0.00 78 1019.5
20260507173118 54 44 1.0 4.0 0.00 0.00 0.00 79 1019.5
20260507172618 54 83 0.0 1.0 0.00 0.00 0.00 79 1019.6
20260507172117 54 77 2.0 3.0 0.00 0.00 0.00 79 1019.4
20260507171637 55 52 4.0 7.0 0.00 0.00 0.00 78 1019.4
20260507171117 54 91 0.0 1.0 0.00 0.00 0.00 79 1019.6
20260507170617 55 73 2.0 3.0 0.00 0.00 0.00 79 1019.5
20260507170157 54 0.0 0.0 0.00 0.00 0.00 79 1019.4
20260507165617 54 19 2.0 3.0 0.00 0.00 0.00 79 1019.4
20260507165117 54 116 0.0 1.0 0.00 0.00 0.00 78 1019.3
20260507164638 54 91 0.0 1.0 0.00 0.00 0.00 80 1019.5
20260507164137 54 100 0.0 1.0 0.00 0.00 0.00 79 1019.6
20260507163717 56 108 0.0 1.0 0.00 0.00 0.00 76 1019.3
20260507163117 56 95 0.0 2.0 0.00 0.00 0.00 76 1019.4
20260507162617 55 87 0.0 1.0 0.00 0.00 0.00 75 1019.5
20260507162117 55 0.0 0.0 0.00 0.00 0.00 78 1019.4
20260507161617 54 120 0.0 1.0 0.00 0.00 0.00 79 1019.5
20260507161138 53 74 2.0 3.0 0.00 0.00 0.00 78 1019.5
20260507160637 52 0.0 0.0 0.00 0.00 0.00 81 1019.5
20260507160158 52 0.0 0.0 0.00 0.00 0.00 82 1019.5
20260507155617 53 118 0.0 1.0 0.00 0.00 0.00 81 1019.6
20260507155117 53 99 0.0 1.0 0.00 0.00 0.00 82 1019.6
20260507154617 53 0.0 0.0 0.00 0.00 0.00 83 1019.7
20260507154117 52 106 0.0 1.0 0.00 0.00 0.00 82 1019.6
20260507153617 52 122 0.0 1.0 0.00 0.00 0.00 83 1019.6
20260507153117 52 0.0 0.0 0.00 0.00 0.00 86 1019.6
20260507152656 52 0.0 0.0 0.00 0.00 0.00 84 1019.7
20260507152117 52 106 0.0 1.0 0.00 0.00 0.00 84 1019.6
20260507151617 51 0.0 0.0 0.00 0.00 0.00 85 1019.8
20260507151117 51 0.0 0.0 0.00 0.00 0.00 85 1019.8
20260507150617 51 101 1.0 2.0 0.00 0.00 0.00 84 1019.8
20260507150137 51 137 0.0 2.0 0.00 0.00 0.00 84 1019.9
20260507145617 51 160 1.0 4.0 0.00 0.00 0.00 84 1019.8
20260507145137 51 139 1.0 3.0 0.00 0.00 0.00 84 1019.9
20260507144617 50 154 2.0 3.0 0.00 0.00 0.00 85 1019.9
20260507144116 50 124 1.0 2.0 0.00 0.00 0.00 85 1019.8
20260507143617 50 101 0.0 1.0 0.00 0.00 0.00 85 1019.7
20260507143117 50 138 1.0 2.0 0.00 0.00 0.00 85 1019.8
20260507142617 50 142 1.0 2.0 0.00 0.00 0.00 85 1019.7
20260507142117 50 0.0 0.0 0.00 0.00 0.00 85 1019.9
20260507141617 50 0.0 0.0 0.00 0.00 0.00 86 1019.9
20260507141117 50 0.0 0.0 0.00 0.00 0.00 86 1019.8
20260507140617 50 0.0 0.0 0.00 0.00 0.00 86 1019.8
20260507140117 50 0.0 0.0 0.00 0.00 0.00 86 1019.9
20260507135617 50 0.0 0.0 0.00 0.00 0.00 86 1019.8
20260507135118 49 0.0 0.0 0.00 0.00 0.00 86 1019.7
20260507134617 49 0.0 0.0 0.00 0.00 0.00 87 1019.6
20260507134117 49 0.0 0.0 0.00 0.00 0.00 88 1019.7
20260507133617 49 0.0 0.0 0.00 0.00 0.00 87 1019.6
20260507133137 49 0.0 0.0 0.00 0.00 0.00 87 1019.6
20260507132617 49 0.0 0.0 0.00 0.00 0.00 89 1019.7
20260507132117 49 0.0 0.0 0.00 0.00 0.00 89 1019.6
20260507131617 48 0.0 0.0 0.00 0.00 0.00 89 1019.6
20260507131117 48 0.0 0.0 0.00 0.00 0.00 89 1019.7
20260507130618 48 0.0 0.0 0.00 0.00 0.00 89 1019.6
20260507130117 48 0.0 0.0 0.00 0.00 0.00 89 1019.6
20260507125617 48 0.0 0.0 0.00 0.00 0.00 90 1019.6
20260507125117 48 0.0 0.0 0.00 0.00 0.00 90 1019.7
20260507124617 48 0.0 0.0 0.00 0.00 0.00 90 1019.7
20260507124117 48 0.0 0.0 0.00 0.00 0.00 90 1019.8
20260507123617 48 0.0 0.0 0.00 0.00 0.00 90 1019.8
20260507123137 48 0.0 0.0 0.00 0.00 0.00 89 1019.8
20260507122617 48 0.0 0.0 0.00 0.00 0.00 90 1019.7
20260507122117 49 0.0 0.0 0.00 0.00 0.00 89 1019.9
20260507121617 49 0.0 0.0 0.00 0.00 0.00 89 1019.9
20260507121117 49 0.0 0.0 0.00 0.00 0.00 88 1019.8
20260507120617 49 0.0 0.0 0.00 0.00 0.00 88 1019.9
20260507120117 49 0.0 0.0 0.00 0.00 0.00 88 1019.8
20260507115617 49 0.0 0.0 0.00 0.00 0.00 89 1020.0
20260507115117 49 0.0 0.0 0.00 0.00 0.00 89 1020.0
20260507114617 49 0.0 0.0 0.00 0.00 0.00 88 1020.3
20260507114118 49 0.0 0.0 0.00 0.00 0.00 89 1020.3
20260507113618 49 0.0 0.0 0.00 0.00 0.00 88 1020.2
20260507113118 49 0.0 0.0 0.00 0.00 0.00 89 1020.2
20260507112617 49 0.0 0.0 0.00 0.00 0.00 89 1020.2
20260507112117 49 0.0 0.0 0.00 0.00 0.00 89 1020.2
20260507111617 49 0.0 0.0 0.00 0.00 0.00 90 1020.0
20260507111117 49 0.0 0.0 0.00 0.00 0.00 90 1020.1
20260507110617 49 0.0 0.0 0.00 0.00 0.00 90 1020.2
20260507110117 49 0.0 0.0 0.00 0.00 0.00 90 1020.1
20260507105637 49 0.0 0.0 0.00 0.00 0.00 90 1020.2
20260507105117 49 0.0 0.0 0.00 0.00 0.00 91 1020.2
20260507104617 48 0.0 0.0 0.00 0.00 0.00 91 1020.3
20260507104117 48 0.0 0.0 0.00 0.00 0.00 93 1020.1
20260507103617 48 0.0 0.0 0.00 0.00 0.00 93 1020.3
20260507103117 49 0.0 0.0 0.00 0.00 0.00 93 1020.4
20260507102617 48 0.0 0.0 0.00 0.00 0.00 92 1020.3
20260507102117 48 0.0 0.0 0.00 0.00 0.00 92 1020.3
20260507101617 48 0.0 0.0 0.00 0.00 0.00 92 1020.3
20260507101118 49 0.0 0.0 0.00 0.00 0.00 92 1020.3
20260507100618 49 0.0 0.0 0.00 0.00 0.00 92 1020.4
20260507100118 49 0.0 0.0 0.00 0.00 0.00 92 1020.3
20260507095617 49 0.0 0.0 0.00 0.00 0.00 92 1020.3
20260507095117 49 0.0 0.0 0.00 0.00 0.00 92 1020.3
20260507094617 49 0.0 0.0 0.00 0.00 0.00 92 1020.2
20260507094117 49 0.0 0.0 0.00 0.00 0.00 91 1020.2
20260507093617 49 0.0 0.0 0.00 0.00 0.00 91 1020.3
20260507093117 49 0.0 0.0 0.00 0.00 0.00 91 1020.3
20260507092618 49 0.0 0.0 0.00 0.00 0.00 91 1020.3
20260507092118 49 0.0 0.0 0.00 0.00 0.00 92 1020.2
20260507091637 49 0.0 0.0 0.00 0.00 0.00 92 1020.2
20260507091117 49 0.0 0.0 0.00 0.00 0.00 92 1020.4
20260507090617 49 0.0 0.0 0.00 0.00 0.00 92 1020.1
20260507090117 50 0.0 0.0 0.00 0.00 0.00 92 1020.2
20260507085617 50 0.0 0.0 0.00 0.00 0.00 91 1020.2
20260507085117 50 0.0 0.0 0.00 0.00 0.00 91 1020.1
20260507084617 50 0.0 0.0 0.00 0.00 0.00 91 1020.2
20260507084117 50 125 1.0 2.0 0.00 0.00 0.00 91 1020.1
20260507083637 51 0.0 0.0 0.00 0.00 0.00 92 1020.2
20260507083117 51 0.0 0.0 0.00 0.00 0.00 92 1020.2
20260507082617 51 0.0 0.0 0.00 0.00 0.00 92 1020.2
20260507082117 51 0.0 0.0 0.00 0.00 0.00 93 1020.1
20260507081617 51 0.0 0.0 0.00 0.00 0.00 93 1020.2
20260507081117 51 0.0 0.0 0.00 0.00 0.00 93 1020.1
20260507080617 51 103 0.0 1.0 0.00 0.00 0.00 93 1020.1
20260507080117 51 0.0 0.0 0.00 0.00 0.00 93 1020.2
20260507075618 51 0.0 0.0 0.00 0.00 0.00 93 1020.2
20260507075117 51 0.0 0.0 0.00 0.00 0.00 94 1020.3
20260507074617 51 104 0.0 1.0 0.00 0.00 0.00 93 1020.3
20260507074137 51 0.0 0.0 0.00 0.00 0.00 93 1020.5
20260507073637 51 0.0 0.0 0.00 0.00 0.00 93 1020.1
20260507073117 52 0.0 0.0 0.00 0.00 0.00 93 1020.3
20260507072617 52 145 1.0 2.0 0.00 0.00 0.00 93 1020.3
20260507072117 52 101 0.0 1.0 0.00 0.00 0.00 92 1020.2
20260507071617 52 0.0 0.0 0.00 0.00 0.00 92 1020.2
20260507071118 52 0.0 0.0 0.00 0.00 0.00 92 1020.1
20260507070617 52 111 0.0 1.0 0.00 0.00 0.00 91 1020.1
20260507070118 52 0.0 0.0 0.00 0.00 0.00 91 1020.2
20260507065617 52 0.0 0.0 0.00 0.00 0.00 91 1020.3
20260507065117 52 0.0 0.0 0.00 0.00 0.00 91 1020.2
20260507064617 52 127 1.0 2.0 0.00 0.00 0.00 91 1020.1
20260507064117 52 0.0 0.0 0.00 0.00 0.00 91 1020.2
20260507063617 52 0.0 0.0 0.00 0.00 0.00 91 1020.1
20260507063117 53 0.0 0.0 0.00 0.00 0.00 91 1020.0
20260507062616 53 0.0 0.0 0.00 0.00 0.00 90 1020.1
20260507062117 53 0.0 0.0 0.00 0.00 0.00 90 1020.1
20260507061637 53 0.0 0.0 0.00 0.00 0.00 90 1020.1
20260507061118 53 0.0 0.0 0.00 0.00 0.00 90 1020.2
20260507060617 53 0.0 0.0 0.00 0.00 0.00 89 1020.1
20260507060117 53 0.0 0.0 0.00 0.00 0.00 89 1020.2
20260507055637 53 0.0 0.0 0.00 0.00 0.00 89 1020.0
20260507055137 53 0.0 0.0 0.00 0.00 0.00 88 1020.1
20260507054617 53 80 1.0 2.0 0.00 0.00 0.00 88 1020.2
20260507054116 53 91 0.0 1.0 0.00 0.00 0.00 87 1020.0
20260507053618 53 106 0.0 1.0 0.00 0.00 0.00 87 1020.0
20260507053118 53 90 0.0 1.0 0.00 0.00 0.00 86 1020.0
20260507052617 54 0.0 0.0 0.00 0.00 0.00 86 1020.1
20260507052117 54 0.0 0.0 0.00 0.00 0.00 85 1020.1
20260507051617 54 0.0 0.0 0.00 0.00 0.00 85 1020.1
20260507051137 54 0.0 0.0 0.00 0.00 0.00 84 1020.1
20260507050617 54 0.0 0.0 0.00 0.00 0.00 85 1020.1
20260507050117 54 0.0 0.0 0.00 0.00 0.00 85 1020.1
20260507045637 54 0.0 0.0 0.00 0.00 0.00 85 1020.0
20260507045117 54 0.0 0.0 0.00 0.00 0.00 84 1020.1
20260507044617 54 0.0 0.0 0.00 0.00 0.00 85 1020.1
20260507044117 54 0.0 0.0 0.00 0.00 0.00 85 1020.0
20260507043617 54 0.0 0.0 0.00 0.00 0.00 85 1020.0
20260507043137 54 0.0 0.0 0.00 0.00 0.00 84 1020.0
20260507042617 55 0.0 0.0 0.00 0.00 0.00 83 1020.2
20260507042137 55 0.0 0.0 0.00 0.00 0.00 84 1020.1
20260507041617 55 102 0.0 1.0 0.00 0.00 0.00 83 1020.0
20260507041116 55 0.0 0.0 0.00 0.00 0.00 84 1020.2
20260507040617 55 132 1.0 3.0 0.00 0.00 0.00 83 1020.0
20260507040138 55 0.0 0.0 0.00 0.00 0.00 83 1019.9
20260507035617 55 0.0 0.0 0.00 0.00 0.00 83 1019.9
20260507035117 55 0.0 0.0 0.00 0.00 0.00 83 1019.8
20260507034617 55 0.0 0.0 0.00 0.00 0.00 83 1019.8
20260507034117 55 0.0 0.0 0.00 0.00 0.00 83 1019.7
20260507033617 55 0.0 0.0 0.00 0.00 0.00 83 1019.8
20260507033137 55 0.0 0.0 0.00 0.00 0.00 83 1019.6
20260507032616 55 0.0 0.0 0.00 0.00 0.00 83 1019.6
20260507032117 55 0.0 0.0 0.00 0.00 0.00 82 1019.7
20260507031618 55 95 0.0 1.0 0.00 0.00 0.00 82 1019.5
20260507031118 55 0.0 0.0 0.00 0.00 0.00 83 1019.4
20260507030637 55 0.0 0.0 0.00 0.00 0.00 82 1019.4
20260507030117 55 0.0 0.0 0.00 0.00 0.00 82 1019.6
20260507025617 55 0.0 0.0 0.00 0.00 0.00 82 1019.5
20260507025137 56 0.0 0.0 0.00 0.00 0.00 82 1019.4
20260507024617 56 0.0 0.0 0.00 0.00 0.00 82 1019.4
20260507024117 56 0.0 0.0 0.00 0.00 0.00 83 1019.4
20260507023618 56 0.0 0.0 0.00 0.00 0.00 82 1019.4
20260507023117 56 0.0 0.0 0.00 0.00 0.00 82 1019.3
20260507022617 56 108 0.0 2.0 0.00 0.00 0.00 82 1019.3
20260507022117 56 109 0.0 2.0 0.00 0.00 0.00 81 1019.3
20260507021617 56 0.0 0.0 0.00 0.00 0.00 81 1019.2
20260507021117 56 0.0 0.0 0.00 0.00 0.00 82 1019.2
20260507020617 56 0.0 0.0 0.00 0.00 0.00 81 1019.3
20260507020137 56 0.0 0.0 0.00 0.00 0.00 81 1019.3
20260507015617 56 0.0 0.0 0.00 0.00 0.00 81 1019.4
20260507015118 56 0.0 0.0 0.00 0.00 0.00 82 1019.2
20260507014617 56 0.0 0.0 0.00 0.00 0.00 82 1019.2
20260507014117 56 0.0 0.0 0.00 0.00 0.00 82 1019.2
20260507013637 56 0.0 0.0 0.00 0.00 0.00 82 1019.2
20260507013117 56 0.0 0.0 0.00 0.00 0.00 82 1019.3
20260507012637 57 0.0 0.0 0.00 0.00 0.00 82 1019.2
20260507012137 57 0.0 0.0 0.00 0.00 0.00 81 1019.2
20260507011617 57 0.0 0.0 0.00 0.00 0.00 81 1019.2
20260507011117 57 0.0 0.0 0.00 0.00 0.00 82 1019.2
20260507010638 57 0.0 0.0 0.00 0.00 0.00 81 1019.2
20260507010118 57 0.0 0.0 0.00 0.00 0.00 81 1019.3
20260507005617 58 0.0 0.0 0.00 0.00 0.00 79 1019.4
20260507005117 58 0.0 0.0 0.00 0.00 0.00 78 1019.3
20260507004617 58 0.0 0.0 0.00 0.00 0.00 79 1019.3
20260507004117 58 0.0 0.0 0.00 0.00 0.00 77 1019.3
20260507003617 58 48 1.0 2.0 0.00 0.00 0.00 77 1019.4
20260507003117 58 0.0 0.0 0.00 0.00 0.00 78 1019.4
20260507002617 58 106 0.0 1.0 0.00 0.00 0.00 78 1019.3
20260507002117 58 0.0 0.0 0.00 0.00 0.00 78 1019.3
20260507001618 58 92 0.0 1.0 0.00 0.00 0.00 77 1019.2
20260507001117 58 83 0.0 1.0 0.00 0.00 0.00 77 1019.3
20260507000618 58 61 0.0 1.0 0.00 0.00 0.00 78 1019.2
20260507000117 58 100 0.0 2.0 0.00 0.00 0.00 78 1019.3
20260506235637 58 0.0 0.0 0.00 0.00 0.00 78 1019.2
20260506235137 58 0.0 0.0 0.00 0.00 0.00 77 1019.4
20260506234617 58 88 0.0 1.0 0.00 0.00 0.00 77 1019.2
20260506234117 58 0.0 0.0 0.00 0.00 0.00 77 1019.4
20260506233617 58 0.0 0.0 0.00 0.00 0.00 77 1019.2
20260506233138 57 0.0 0.0 0.00 0.00 0.00 79 1019.4
20260506232617 57 0.0 0.0 0.00 0.00 0.00 80 1019.4
20260506232117 57 0.0 0.0 0.00 0.00 0.00 80 1019.3
20260506231617 57 75 1.0 2.0 0.00 0.00 0.00 79 1019.5
20260506231117 57 80 2.0 3.0 0.00 0.00 0.00 79 1019.5
20260506230617 57 0.0 0.0 0.00 0.00 0.00 78 1019.5
20260506230117 57 0.0 0.0 0.00 0.00 0.00 79 1019.5
20260506225617 57 92 0.0 1.0 0.00 0.00 0.00 79 1019.4
20260506225117 57 91 0.0 1.0 0.00 0.00 0.00 79 1019.6
20260506224618 57 0.0 0.0 0.00 0.00 0.00 79 1019.4
20260506224118 57 0.0 0.0 0.00 0.00 0.00 80 1019.5
20260506223617 57 0.0 0.0 0.00 0.00 0.00 79 1019.7
20260506223117 56 50 0.0 2.0 0.00 0.00 0.00 79 1019.6
20260506222617 56 0.0 0.0 0.00 0.00 0.00 82 1019.6
20260506222117 56 0.0 0.0 0.00 0.00 0.00 81 1019.7
20260506221617 56 0.0 0.0 0.00 0.00 0.00 82 1019.8
20260506221117 56 0.0 0.0 0.00 0.00 0.00 81 1019.9
20260506220617 56 83 1.0 2.0 0.00 0.00 0.00 82 1019.8
20260506220117 56 65 1.0 2.0 0.00 0.00 0.00 81 1019.8
20260506215617 57 85 1.0 2.0 0.00 0.00 0.00 80 1019.7
20260506215118 57 0.0 0.0 0.00 0.00 0.00 81 1019.8
20260506214617 56 89 0.0 1.0 0.00 0.00 0.00 81 1019.8
20260506214117 56 0.0 0.0 0.00 0.00 0.00 81 1019.7
20260506213617 56 0.0 0.0 0.00 0.00 0.00 83 1019.7
20260506213117 56 0.0 0.0 0.00 0.00 0.00 83 1019.8
20260506212617 56 90 1.0 2.0 0.00 0.00 0.00 82 1019.8
20260506212117 56 79 1.0 2.0 0.00 0.00 0.00 82 1019.8
20260506211617 56 0.0 0.0 0.00 0.00 0.00 83 1019.8
20260506211157 56 74 1.0 2.0 0.00 0.00 0.00 83 1019.8
20260506210617 55 90 1.0 2.0 0.00 0.00 0.00 83 1019.7
20260506210117 55 58 2.0 3.0 0.00 0.00 0.00 83 1019.7
20260506205617 55 54 2.0 3.0 0.00 0.00 0.00 83 1019.7
20260506205137 55 82 1.0 2.0 0.00 0.00 0.00 84 1019.8
20260506204617 55 65 0.0 2.0 0.00 0.00 0.00 84 1019.7
20260506204117 55 49 1.0 2.0 0.00 0.00 0.00 84 1019.6
20260506203617 56 86 1.0 1.0 0.00 0.00 0.00 84 1019.6
20260506203118 56 0.0 0.0 0.00 0.00 0.00 84 1019.6
20260506202617 56 0.0 0.0 0.00 0.00 0.00 84 1019.6
20260506202118 55 113 0.0 1.0 0.00 0.00 0.00 86 1019.5
20260506201617 55 130 0.0 1.0 0.00 0.00 0.00 86 1019.7
20260506201117 55 0.0 0.0 0.00 0.00 0.00 86 1019.6
20260506200617 55 94 0.0 1.0 0.00 0.00 0.00 86 1019.7
20260506200117 55 0.0 0.0 0.00 0.00 0.00 87 1019.6